| time (UTC) | temp F | wind direction | speed MPH | gust MPH | rain 1hr in | rain 24hr in | rain mn in | humidity % | barometer mb |
| 20260506044529 | 68 | 44 | 1.0 | 7.0 | 0.00 | 0.00 | 0.00 | 1 | 1014.4 |
| 20260506043019 | 67 | 49 | 1.0 | 7.0 | 0.00 | 0.00 | 0.00 | 1 | 1014.7 |
| 20260506041514 | 66 | 37 | 2.0 | 5.0 | 0.00 | 0.00 | 0.00 | 1 | 1014.7 |
| 20260506040010 | 67 | 82 | 2.0 | 6.0 | 0.00 | 0.00 | 0.00 | 1 | 1014.2 |
| 20260506034506 | 67 | 55 | 2.0 | 5.0 | 0.00 | 0.00 | 0.00 | 1 | 1014.4 |
| 20260506033001 | 67 | 71 | 2.0 | 6.0 | 0.00 | 0.00 | 0.00 | 1 | 1014.6 |
| 20260506031601 | 67 | 62 | 3.0 | 5.0 | 0.00 | 0.00 | 0.00 | 1 | 1014.3 |
| 20260506024557 | 68 | 217 | 0.0 | 2.0 | 0.00 | 0.00 | 0.00 | 1 | 1014.4 |
| 20260506023052 | 68 | 92 | 0.0 | 1.0 | 0.00 | 0.00 | 0.00 | 1 | 1014.3 |
| 20260506021558 | 69 | 79 | 2.0 | 8.0 | 0.00 | 0.00 | 0.00 | 1 | 1014.2 |
| 20260506020050 | 68 | 89 | 3.0 | 6.0 | 0.00 | 0.00 | 0.00 | 1 | 1014.1 |
| 20260506014558 | 68 | 76 | 2.0 | 8.0 | 0.00 | 0.00 | 0.00 | 1 | 1014.3 |
| 20260506013054 | 67 | 79 | 3.0 | 8.0 | 0.00 | 0.00 | 0.00 | 2 | 1014.2 |
| 20260506011548 | 67 | 56 | 2.0 | 7.0 | 0.00 | 0.00 | 0.00 | 10 | 1013.6 |
| 20260506010053 | 67 | 53 | 1.0 | 5.0 | 0.00 | 0.00 | 0.00 | 22 | 1013.9 |
| 20260506004551 | 67 | 80 | 2.0 | 8.0 | 0.00 | 0.00 | 0.00 | 29 | 1014.0 |
| 20260506003047 | 67 | 82 | 4.0 | 6.0 | 0.00 | 0.00 | 0.00 | 33 | 1014.4 |
| 20260506001551 | 66 | 42 | 3.0 | 6.0 | 0.00 | 0.00 | 0.00 | 35 | 1014.6 |
| 20260506000046 | 66 | 63 | 2.0 | 4.0 | 0.00 | 0.00 | 0.00 | 22 | 1014.4 |
| 20260505234546 | 65 | 59 | 0.0 | 4.0 | 0.00 | 0.00 | 0.00 | 4 | 1014.3 |
| 20260505233044 | 64 | 45 | 1.0 | 3.0 | 0.00 | 0.00 | 0.00 | 1 | 1014.4 |
| 20260505231539 | 65 | 134 | 0.0 | 0.0 | 0.00 | 0.00 | 0.00 | 1 | 1014.3 |
| 20260505230045 | 66 | 134 | 0.0 | 1.0 | 0.00 | 0.00 | 0.00 | 1 | 1014.2 |
| 20260505224535 | 66 | 134 | 0.0 | 1.0 | 0.00 | 0.00 | 0.00 | 1 | 1014.3 |
| 20260505223026 | 67 | 134 | 0.0 | 1.0 | 0.00 | 0.00 | 0.00 | 1 | 1014.7 |
| 20260505221522 | 67 | 140 | 0.0 | 1.0 | 0.00 | 0.00 | 0.00 | 1 | 1014.5 |
| 20260505220017 | 67 | 140 | 0.0 | 1.0 | 0.00 | 0.00 | 0.00 | 10 | 1014.2 |
| 20260505214514 | 68 | 140 | 0.0 | 0.0 | 0.00 | 0.00 | 0.00 | 19 | 1014.0 |
| 20260505213009 | 68 | 140 | 0.0 | 0.0 | 0.00 | 0.00 | 0.00 | 29 | 1014.1 |
| 20260505211504 | 69 | 140 | 0.0 | 0.0 | 0.00 | 0.00 | 0.00 | 41 | 1014.3 |
| 20260505210107 | 69 | 140 | 0.0 | 0.0 | 0.00 | 0.00 | 0.00 | 49 | 1014.3 |
| 20260505204556 | 70 | 140 | 0.0 | 0.0 | 0.00 | 0.00 | 0.00 | 52 | 1014.4 |
| 20260505203055 | 71 | 140 | 0.0 | 1.0 | 0.00 | 0.00 | 0.00 | 56 | 1014.3 |
| 20260505201548 | 71 | 140 | 0.0 | 1.0 | 0.00 | 0.00 | 0.00 | 59 | 1014.4 |
| 20260505200042 | 71 | 140 | 0.0 | 2.0 | 0.00 | 0.00 | 0.00 | 59 | 1014.1 |
| 20260505194538 | 71 | 140 | 2.0 | 6.0 | 0.00 | 0.00 | 0.00 | 61 | 1014.0 |
| 20260505193052 | 73 | 166 | 1.0 | 2.0 | 0.00 | 0.00 | 0.00 | 61 | 1014.1 |
| 20260505191534 | 72 | 237 | 0.0 | 1.0 | 0.00 | 0.00 | 0.00 | 61 | 1014.2 |
| 20260505190037 | 71 | 237 | 0.0 | 2.0 | 0.00 | 0.00 | 0.00 | 60 | 1014.4 |
| 20260505184527 | 73 | 250 | 2.0 | 7.0 | 0.00 | 0.00 | 0.00 | 61 | 1014.2 |
| 20260505183021 | 74 | 9 | 0.0 | 6.0 | 0.00 | 0.00 | 0.00 | 60 | 1013.8 |
| 20260505181518 | 73 | 61 | 2.0 | 7.0 | 0.00 | 0.00 | 0.00 | 60 | 1013.5 |
| 20260505180021 | 73 | 84 | 0.0 | 5.0 | 0.00 | 0.00 | 0.00 | 60 | 1013.7 |
| 20260505174514 | 72 | 68 | 1.0 | 5.0 | 0.00 | 0.00 | 0.00 | 61 | 1013.6 |
| 20260505173012 | 71 | 269 | 1.0 | 5.0 | 0.00 | 0.00 | 0.00 | 61 | 1013.9 |
| 20260505171507 | 73 | 254 | 1.0 | 4.0 | 0.00 | 0.00 | 0.00 | 61 | 1014.0 |
| 20260505170003 | 73 | 353 | 0.0 | 1.0 | 0.00 | 0.00 | 0.00 | 56 | 1013.8 |
| 20260505164559 | 73 | 354 | 0.0 | 4.0 | 0.00 | 0.00 | 0.00 | 61 | 1014.1 |
| 20260505163055 | 72 | 40 | 0.0 | 4.0 | 0.00 | 0.00 | 0.00 | 61 | 1014.0 |
| 20260505161551 | 71 | 17 | 0.0 | 2.0 | 0.00 | 0.00 | 0.00 | 60 | 1014.3 |
| 20260505153045 | 70 | 261 | 0.0 | 1.0 | 0.00 | 0.00 | 0.00 | 55 | 1014.9 |
| 20260505151537 | 69 | 261 | 0.0 | 4.0 | 0.00 | 0.00 | 0.00 | 60 | 1015.2 |
| 20260505124554 | 65 | 43 | 0.0 | 1.0 | 0.00 | 0.00 | 0.00 | 31 | 1015.0 |
| 20260505123056 | 63 | 44 | 0.0 | 0.0 | 0.00 | 0.00 | 0.00 | 29 | 1015.0 |
| 20260505121542 | 62 | 44 | 0.0 | 0.0 | 0.00 | 0.00 | 0.00 | 29 | 1014.9 |
| 20260505120051 | 61 | 44 | 0.0 | 0.0 | 0.00 | 0.00 | 0.00 | 29 | 1014.8 |
| 20260505114533 | 61 | 44 | 0.0 | 0.0 | 0.00 | 0.00 | 0.00 | 32 | 1014.8 |
| 20260505113029 | 60 | 44 | 0.0 | 1.0 | 0.00 | 0.00 | 0.00 | 35 | 1014.7 |
| 20260505111530 | 60 | 44 | 0.0 | 1.0 | 0.00 | 0.00 | 0.00 | 34 | 1014.6 |
| 20260505101506 | 57 | 44 | 0.0 | 1.0 | 0.00 | 0.00 | 0.00 | 9 | 1014.1 |
| 20260505100002 | 57 | 44 | 0.0 | 1.0 | 0.00 | 0.00 | 0.00 | 13 | 1013.9 |
| 20260505094558 | 57 | 44 | 0.0 | 1.0 | 0.00 | 0.00 | 0.00 | 20 | 1013.7 |
| 20260505093054 | 57 | 44 | 0.0 | 2.0 | 0.00 | 0.00 | 0.00 | 26 | 1013.5 |
| 20260505091613 | 58 | 44 | 0.0 | 1.0 | 0.00 | 0.00 | 0.00 | 31 | 1013.0 |
| 20260505090055 | 58 | 44 | 0.0 | 1.0 | 0.00 | 0.00 | 0.00 | 31 | 1012.9 |
| 20260505084559 | 58 | 42 | 0.0 | 1.0 | 0.00 | 0.00 | 0.00 | 33 | 1013.0 |
| 20260505083056 | 58 | 65 | 0.0 | 1.0 | 0.00 | 0.00 | 0.00 | 35 | 1012.8 |
| 20260505081546 | 58 | 309 | 0.0 | 1.0 | 0.00 | 0.00 | 0.00 | 31 | 1012.7 |
| 20260505080039 | 58 | 309 | 0.0 | 2.0 | 0.00 | 0.00 | 0.00 | 29 | 1012.6 |
| 20260505074523 | 58 | 309 | 0.0 | 1.0 | 0.00 | 0.00 | 0.00 | 26 | 1012.5 |
| 20260505073033 | 58 | 309 | 0.0 | 1.0 | 0.00 | 0.00 | 0.00 | 20 | 1012.3 |
| 20260505071514 | 57 | 309 | 0.0 | 1.0 | 0.00 | 0.00 | 0.00 | 18 | 1012.2 |
| 20260505070010 | 57 | 309 | 0.0 | 1.0 | 0.00 | 0.00 | 0.00 | 24 | 1012.5 |
| 20260505064505 | 57 | 309 | 0.0 | 1.0 | 0.00 | 0.00 | 0.00 | 30 | 1012.5 |
| 20260505063001 | 58 | 309 | 0.0 | 0.0 | 0.00 | 0.00 | 0.00 | 35 | 1012.6 |
| 20260505061600 | 59 | 309 | 0.0 | 1.0 | 0.00 | 0.00 | 0.00 | 42 | 1012.7 |
| 20260505060100 | 59 | 309 | 0.0 | 5.0 | 0.00 | 0.00 | 0.00 | 40 | 1012.9 |
| 20260505054551 | 59 | 300 | 0.0 | 5.0 | 0.00 | 0.00 | 0.00 | 33 | 1012.8 |
| 20260505053044 | 58 | 273 | 0.0 | 2.0 | 0.00 | 0.00 | 0.00 | 22 | 1012.7 |
| 20260505051539 | 57 | 58 | 0.0 | 1.0 | 0.00 | 0.00 | 0.00 | 15 | 1012.6 |